Tracking 19827 objects as of 21-Aug-2019
HD Live streaming from Space Station
objects crossing your sky now

COSMOS 2251 DEB

Track COSMOS 2251 DEB now!
10-day predictions


NORAD ID: 36632
Int'l Code: 1993-036BEW
Perigee: 760.2 km
Apogee: 815.7 km
Inclination: 74.0 °
Period: 100.5 minutes
Semi major axis: 7158 km
RCS: 0.0009 m2 (small)
Launch date: June 16, 1993
Source: Commonwealth of Independent States (former USSR) (CIS)
Launch site: PLESETSK MISSILE AND SPACE COMPLEX (PKMTR)

Note: This is SATELLITE DEBRIS
aabbcc
Your satellite tracking list
Your tracking list is empty




NASA's NSSDC Master Catalog

Two Line Element Set (TLE):
1 36632U 93036BEW 19232.64208342 +.00000226 +00000-0 +90850-4 0  9993
2 36632 074.0045 215.0075 0038801 150.0523 210.2859 14.33266746321104
Source of the keplerian elements: AFSPC